Bowling Green, KY

5:53 AM CDT on October 20, 2017 (GMT -0500)
Bowling Green-Warren County Regional

Weather History for KBWG - November, 2011

Change the Weather History Date:

Tuesday, November 29, 2011

  Actual Average Record
Temperature  
Mean Temperature 39 °F 43 °F  
Max Temperature 42 °F 53 °F 77 °F (1927)
Min Temperature 36 °F 33 °F 9 °F (1887)
Degree Days  
Heating Degree Days 26 22  
Month to date heating degree days 359 478  
Since 1 July heating degree days 604 741  
Cooling Degree Days 0 0  
Month to date cooling degree days 7 0  
Year to date cooling degree days 1810 1488  
Moisture  
Dew Point 34 °F    
Average Humidity 81    
Maximum Humidity 85    
Minimum Humidity 76    
Precipitation  
Precipitation 0.01 in 0.16 in 2.26 in (2001)
Month to date precipitation 8.07 4.06  
Year to date precipitation 58.32 44.93  
Snow  
Snow T in 0.00 in 1.00 in (1959)
Month to date snowfall T 0.1  
Since 1 July snowfall T 0.1  
Since 1 September snowfall T 0.1  
Snow Depth 0.00 in    
Sea Level Pressure  
Sea Level Pressure 29.82 in    
Wind  
Wind Speed 10 mph (SW)    
Max Wind Speed 18 mph    
Max Gust Speed 24 mph    
Visibility 10 miles    
Events Rain , Snow    
T = Trace of Precipitation, MM = Missing Value Source: NWS Daily Summary

Daily Weather History Graph

Daily Weather History Graph

Search for Another Location

Airport or City:

Trip Planner

Search our weather history database for the weather conditions in past years. The results will help you decide how hot, cold, wet, or windy it might be!

Date:

Astronomy

Nov. 29, 2011 Rise Set
Actual Time 6:38 AM CST 4:29 PM CST
Civil Twilight 6:09 AM CST 4:58 PM CST
Nautical Twilight 5:37 AM CST 5:30 PM CST
Astronomical Twilight 5:06 AM CST 6:01 PM CST
Moon 10:26 AM CST (11/29) 9:19 PM CST (11/29)
Length of Visible Light 10h 48m
Length of Day
9h 51m
Waxing Crescent, 24% of the Moon is Illuminated
Nov 29
Waxing Crescent
Dec 2
First Quarter
Dec 10
Full
Dec 17
Last Quarter
Dec 24
New

Hourly Weather History & Observations

Time (CST) Temp. Windchill Dew Point Humidity Pressure Visibility Wind Dir Wind Speed Gust Speed Precip Events Conditions
12:15 AM 41.0 °F 33.5 °F 37.4 °F 87% 29.70 in 10.0 mi South 13.8 mph - N/A   Overcast
12:23 AM 41.0 °F 34.7 °F 35.6 °F 81% 29.70 in 10.0 mi South 10.4 mph - N/A   Overcast
1:00 AM 41.0 °F 33.1 °F 35.6 °F 81% 29.70 in 10.0 mi South 15.0 mph 19.6 mph N/A   Overcast
1:10 AM 39.2 °F 31.2 °F 35.6 °F 87% 29.70 in 10.0 mi South 13.8 mph - N/A   Overcast
1:53 AM 39.0 °F 30.3 °F 34.0 °F 82% 29.72 in 7.0 mi South 16.1 mph - N/A   Overcast
2:53 AM 37.9 °F 30.9 °F 33.1 °F 83% 29.72 in 10.0 mi South 10.4 mph - 0.00 in   Overcast
3:53 AM 37.0 °F 29.8 °F 34.0 °F 89% 29.72 in 9.0 mi South 10.4 mph - 0.00 in   Overcast
4:17 AM 37.4 °F 30.3 °F 33.8 °F 87% 29.71 in 10.0 mi South 10.4 mph - 0.00 in   Overcast
4:31 AM 37.4 °F 29.8 °F 33.8 °F 87% 29.72 in 10.0 mi South 11.5 mph - 0.00 in   Overcast
4:53 AM 37.0 °F 30.4 °F 33.1 °F 86% 29.73 in 10.0 mi South 9.2 mph - 0.00 in   Overcast
5:01 AM 37.4 °F 30.8 °F 33.8 °F 87% 29.72 in 10.0 mi South 9.2 mph - N/A   Overcast
5:13 AM 37.4 °F 30.8 °F 33.8 °F 87% 29.72 in 10.0 mi South 9.2 mph - N/A   Overcast
5:24 AM 37.4 °F 30.3 °F 33.8 °F 87% 29.73 in 10.0 mi SSW 10.4 mph - 0.00 in   Overcast
5:31 AM 37.4 °F 30.8 °F 33.8 °F 87% 29.73 in 8.0 mi SSW 9.2 mph - 0.00 in Snow Light Snow
5:44 AM 35.6 °F 28.6 °F 33.8 °F 93% 29.73 in 10.0 mi SSW 9.2 mph - 0.00 in   Overcast
5:53 AM 37.0 °F 32.4 °F 33.1 °F 86% 29.73 in 10.0 mi South 5.8 mph - 0.00 in   Overcast
6:53 AM 37.0 °F 30.4 °F 32.0 °F 82% 29.76 in 10.0 mi SSW 9.2 mph - 0.00 in   Overcast
7:53 AM 37.9 °F 31.5 °F 33.1 °F 83% 29.78 in 10.0 mi South 9.2 mph - N/A   Overcast
8:25 AM 37.4 °F 32.1 °F 33.8 °F 87% 29.79 in 10.0 mi SW 6.9 mph - 0.00 in Rain Light Rain
8:53 AM 37.9 °F 30.9 °F 33.1 °F 83% 29.79 in 10.0 mi SSW 10.4 mph - 0.00 in Snow Light Snow
9:53 AM 39.0 °F 33.4 °F 33.1 °F 79% 29.81 in 10.0 mi SSW 8.1 mph - 0.01 in   Overcast
10:53 AM 39.9 °F 33.9 °F 32.0 °F 73% 29.81 in 10.0 mi SSW 9.2 mph - N/A   Overcast
11:07 AM 39.2 °F 33.0 °F 32.0 °F 75% 29.80 in 10.0 mi SSW 9.2 mph - N/A   Overcast
11:53 AM 39.9 °F 35.8 °F 33.1 °F 77% 29.80 in 10.0 mi SW 5.8 mph - 0.00 in   Overcast
12:53 PM 39.9 °F 33.9 °F 33.1 °F 77% 29.79 in 10.0 mi WSW 9.2 mph - N/A   Overcast
1:08 PM 39.2 °F 33.6 °F 33.8 °F 81% 29.79 in 10.0 mi West 8.1 mph - N/A   Overcast
1:29 PM 41.0 °F 35.2 °F 33.8 °F 76% 29.79 in 10.0 mi SW 9.2 mph - N/A   Overcast
1:53 PM 39.9 °F 33.9 °F 33.1 °F 77% 29.81 in 10.0 mi West 9.2 mph - N/A   Overcast
2:53 PM 39.9 °F 35.1 °F 34.0 °F 79% 29.83 in 10.0 mi WSW 6.9 mph - N/A   Overcast
3:07 PM 39.2 °F 32.5 °F 33.8 °F 81% 29.83 in 10.0 mi WSW 10.4 mph - N/A   Overcast
3:53 PM 39.9 °F 32.5 °F 36.0 °F 86% 29.86 in 6.0 mi West 12.7 mph - 0.00 in Rain Light Rain
4:34 PM 39.2 °F 34.2 °F 35.6 °F 87% 29.87 in 10.0 mi West 6.9 mph - 0.00 in Rain Light Rain
4:53 PM 39.0 °F 34.8 °F 35.1 °F 86% 29.88 in 10.0 mi West 5.8 mph - 0.00 in   Overcast
5:53 PM 39.0 °F 31.4 °F 35.1 °F 86% 29.91 in 10.0 mi West 12.7 mph - 0.00 in Rain Light Rain
6:53 PM 39.0 °F 33.4 °F 36.0 °F 89% 29.94 in 10.0 mi West 8.1 mph - N/A   Overcast
7:38 PM 39.2 °F 32.0 °F 35.6 °F 87% 29.95 in 10.0 mi WNW 11.5 mph 18.4 mph N/A   Overcast
7:53 PM 39.9 °F 33.4 °F 35.1 °F 83% 29.96 in 10.0 mi WNW 10.4 mph 20.7 mph N/A   Overcast
8:25 PM 39.2 °F 32.5 °F 35.6 °F 87% 29.97 in 10.0 mi WNW 10.4 mph 17.3 mph 0.00 in   Overcast
8:53 PM 39.9 °F 34.5 °F 36.0 °F 86% 29.98 in 10.0 mi WNW 8.1 mph - 0.00 in Rain Light Rain
9:03 PM 39.2 °F 33.6 °F 35.6 °F 87% 29.98 in 10.0 mi WNW 8.1 mph - 0.00 in   Overcast
9:35 PM 39.2 °F 33.6 °F 37.4 °F 93% 29.98 in 10.0 mi WNW 8.1 mph - 0.00 in   Overcast
10:13 PM 41.0 °F 35.8 °F 37.4 °F 87% 29.99 in 10.0 mi WNW 8.1 mph - N/A   Overcast
10:53 PM 41.0 °F 34.3 °F 35.1 °F 79% 30.01 in 10.0 mi WNW 11.5 mph 17.3 mph N/A   Overcast
11:53 PM 39.9 °F 32.5 °F 34.0 °F 79% 30.02 in 10.0 mi WNW 12.7 mph - N/A   Overcast